Year,Month,Day,Hour,Minute,Value (Times are PST for temperature in C)
2016,05,03,00,00,17.70
2016,05,03,00,01,17.70
2016,05,03,00,02,17.70
2016,05,03,00,03,17.70
2016,05,03,00,04,17.70
2016,05,03,00,05,17.70
2016,05,03,00,06,17.70
2016,05,03,00,07,17.70
2016,05,03,00,08,17.70
2016,05,03,00,09,17.70
2016,05,03,00,10,17.60
2016,05,03,00,11,17.60
2016,05,03,00,12,17.60
2016,05,03,00,13,17.60
2016,05,03,00,14,17.60
2016,05,03,00,15,17.60
2016,05,03,00,16,17.60
2016,05,03,00,17,17.60
2016,05,03,00,18,17.60
2016,05,03,00,19,17.60
2016,05,03,00,20,17.50
2016,05,03,00,21,17.50
2016,05,03,00,22,17.50
2016,05,03,00,23,17.40
2016,05,03,00,24,17.40
2016,05,03,00,25,17.40
2016,05,03,00,26,17.50
2016,05,03,00,27,17.50
2016,05,03,00,28,17.50
2016,05,03,00,29,17.60
2016,05,03,00,30,17.70
2016,05,03,00,31,17.80
2016,05,03,00,32,17.90
2016,05,03,00,33,18.00
2016,05,03,00,34,18.00
2016,05,03,00,35,18.10
2016,05,03,00,36,18.20
2016,05,03,00,37,18.20
2016,05,03,00,38,18.20
2016,05,03,00,39,18.30
2016,05,03,00,40,18.40
2016,05,03,00,41,18.50
2016,05,03,00,42,18.60
2016,05,03,00,43,18.60
2016,05,03,00,44,18.60
2016,05,03,00,45,18.60
2016,05,03,00,46,18.60
2016,05,03,00,47,18.70
2016,05,03,00,48,18.70
2016,05,03,00,49,18.70
2016,05,03,00,50,18.70
2016,05,03,00,51,18.70
2016,05,03,00,52,18.70
2016,05,03,00,53,18.60
2016,05,03,00,54,18.60
2016,05,03,00,55,18.60
2016,05,03,00,56,18.60
2016,05,03,00,57,18.60
2016,05,03,00,58,18.50
2016,05,03,00,59,18.50
2016,05,03,01,00,18.50
2016,05,03,01,01,18.50
2016,05,03,01,02,18.50
2016,05,03,01,03,18.60
2016,05,03,01,04,18.60
2016,05,03,01,05,18.60
2016,05,03,01,06,18.60
2016,05,03,01,07,18.60
2016,05,03,01,08,18.60
2016,05,03,01,09,18.60
2016,05,03,01,10,18.60
2016,05,03,01,11,18.60
2016,05,03,01,12,18.50
2016,05,03,01,13,18.50
2016,05,03,01,14,18.40
2016,05,03,01,15,18.30
2016,05,03,01,16,18.20
2016,05,03,01,17,18.00
2016,05,03,01,18,17.90
2016,05,03,01,19,17.70
2016,05,03,01,20,17.60
2016,05,03,01,21,17.60
2016,05,03,01,22,17.50
2016,05,03,01,23,17.50
2016,05,03,01,24,17.40
2016,05,03,01,25,17.40
2016,05,03,01,26,17.30
2016,05,03,01,27,17.30
2016,05,03,01,28,17.30
2016,05,03,01,29,17.30
2016,05,03,01,30,17.30
2016,05,03,01,31,17.30
2016,05,03,01,32,17.40
2016,05,03,01,33,17.40
2016,05,03,01,34,17.50
2016,05,03,01,35,17.60
2016,05,03,01,36,17.60
2016,05,03,01,37,17.70
2016,05,03,01,38,17.70
2016,05,03,01,39,17.70
2016,05,03,01,40,17.70
2016,05,03,01,41,17.70
2016,05,03,01,42,17.70
2016,05,03,01,43,17.60
2016,05,03,01,44,17.60
2016,05,03,01,45,17.50
2016,05,03,01,46,17.50
2016,05,03,01,47,17.50
2016,05,03,01,48,17.50
2016,05,03,01,49,17.50
2016,05,03,01,50,17.50
2016,05,03,01,51,17.50
2016,05,03,01,52,17.60
2016,05,03,01,53,17.60
2016,05,03,01,54,17.60
2016,05,03,01,55,17.50
2016,05,03,01,56,17.50
2016,05,03,01,57,17.40
2016,05,03,01,58,17.40
2016,05,03,01,59,17.40
2016,05,03,02,00,17.40
2016,05,03,02,01,17.50
2016,05,03,02,02,17.50
2016,05,03,02,03,17.60
2016,05,03,02,04,17.60
2016,05,03,02,05,17.70
2016,05,03,02,06,17.70
2016,05,03,02,07,17.80
2016,05,03,02,08,17.80
2016,05,03,02,09,17.90
2016,05,03,02,10,18.00
2016,05,03,02,11,18.10
2016,05,03,02,12,18.20
2016,05,03,02,13,18.20
2016,05,03,02,14,18.20
2016,05,03,02,15,18.10
2016,05,03,02,16,18.00
2016,05,03,02,17,17.90
2016,05,03,02,18,17.80
2016,05,03,02,19,17.70
2016,05,03,02,20,17.70
2016,05,03,02,21,17.60
2016,05,03,02,22,17.60
2016,05,03,02,23,17.60
2016,05,03,02,24,17.60
2016,05,03,02,25,17.70
2016,05,03,02,26,17.80
2016,05,03,02,27,17.80
2016,05,03,02,28,17.80
2016,05,03,02,29,17.80
2016,05,03,02,30,17.80
2016,05,03,02,31,17.80
2016,05,03,02,32,17.80
2016,05,03,02,33,17.70
2016,05,03,02,34,17.70
2016,05,03,02,35,17.70
2016,05,03,02,36,17.70
2016,05,03,02,37,17.60
2016,05,03,02,38,17.60
2016,05,03,02,39,17.50
2016,05,03,02,40,17.50
2016,05,03,02,41,17.50
2016,05,03,02,42,17.50
2016,05,03,02,43,17.50
2016,05,03,02,44,17.50
2016,05,03,02,45,17.50
2016,05,03,02,46,17.40
2016,05,03,02,47,17.40
2016,05,03,02,48,17.40
2016,05,03,02,49,17.40
2016,05,03,02,50,17.30
2016,05,03,02,51,17.30
2016,05,03,02,52,17.30
2016,05,03,02,53,17.30
2016,05,03,02,54,17.30
2016,05,03,02,55,17.30
2016,05,03,02,56,17.30
2016,05,03,02,57,17.30
2016,05,03,02,58,17.20
2016,05,03,02,59,17.20
2016,05,03,03,00,17.20
2016,05,03,03,01,17.10
2016,05,03,03,02,17.00
2016,05,03,03,03,16.90
2016,05,03,03,04,16.90
2016,05,03,03,05,16.80
2016,05,03,03,06,16.70
2016,05,03,03,07,16.60
2016,05,03,03,08,16.50
2016,05,03,03,09,16.40
2016,05,03,03,10,16.30
2016,05,03,03,11,16.30
2016,05,03,03,12,16.30
2016,05,03,03,13,16.40
2016,05,03,03,14,16.50
2016,05,03,03,15,16.70
2016,05,03,03,16,16.90
2016,05,03,03,17,17.00
2016,05,03,03,18,17.20
2016,05,03,03,19,17.30
2016,05,03,03,20,17.40
2016,05,03,03,21,17.50
2016,05,03,03,22,17.60
2016,05,03,03,23,17.70
2016,05,03,03,24,17.80
2016,05,03,03,25,17.80
2016,05,03,03,26,17.80
2016,05,03,03,27,17.80
2016,05,03,03,28,17.80
2016,05,03,03,29,17.70
2016,05,03,03,30,17.70
2016,05,03,03,31,17.70
2016,05,03,03,32,17.60
2016,05,03,03,33,17.60
2016,05,03,03,34,17.60
2016,05,03,03,35,17.70
2016,05,03,03,36,17.70
2016,05,03,03,37,17.70
2016,05,03,03,38,17.70
2016,05,03,03,39,17.70
2016,05,03,03,40,17.70
2016,05,03,03,41,17.70
2016,05,03,03,42,17.70
2016,05,03,03,43,17.70
2016,05,03,03,44,17.70
2016,05,03,03,45,17.80
2016,05,03,03,46,17.80
2016,05,03,03,47,17.90
2016,05,03,03,48,17.90
2016,05,03,03,49,17.90
2016,05,03,03,50,18.00
2016,05,03,03,51,18.00
2016,05,03,03,52,18.10
2016,05,03,03,53,18.10
2016,05,03,03,54,18.20
2016,05,03,03,55,18.20
2016,05,03,03,56,18.30
2016,05,03,03,57,18.40
2016,05,03,03,58,18.40
2016,05,03,03,59,18.50
2016,05,03,04,00,18.60
2016,05,03,04,01,18.60
2016,05,03,04,02,18.70
2016,05,03,04,03,18.80
2016,05,03,04,04,18.80
2016,05,03,04,05,18.80
2016,05,03,04,06,18.80
2016,05,03,04,07,18.80
2016,05,03,04,08,18.80
2016,05,03,04,09,18.80
2016,05,03,04,10,18.80
2016,05,03,04,11,18.80
2016,05,03,04,12,18.80
2016,05,03,04,13,18.90
2016,05,03,04,14,18.90
2016,05,03,04,15,19.00
2016,05,03,04,16,19.00
2016,05,03,04,17,19.10
2016,05,03,04,18,19.10
2016,05,03,04,19,19.10
2016,05,03,04,20,19.20
2016,05,03,04,21,19.20
2016,05,03,04,22,19.20
2016,05,03,04,23,19.30
2016,05,03,04,24,19.30
2016,05,03,04,25,19.30
2016,05,03,04,26,19.30
2016,05,03,04,27,19.40
2016,05,03,04,28,19.40
2016,05,03,04,29,19.50
2016,05,03,04,30,19.60
2016,05,03,04,31,19.60
2016,05,03,04,32,19.50
2016,05,03,04,33,19.40
2016,05,03,04,34,19.30
2016,05,03,04,35,19.20
2016,05,03,04,36,19.00
2016,05,03,04,37,18.90
2016,05,03,04,38,18.80
2016,05,03,04,39,18.80
2016,05,03,04,40,18.60
2016,05,03,04,41,18.60
2016,05,03,04,42,18.50
2016,05,03,04,43,18.40
2016,05,03,04,44,18.40
2016,05,03,04,45,18.30
2016,05,03,04,46,18.30
2016,05,03,04,47,18.30
2016,05,03,04,48,18.20
2016,05,03,04,49,18.20
2016,05,03,04,50,18.10
2016,05,03,04,51,18.10
2016,05,03,04,52,18.10
2016,05,03,04,53,18.00
2016,05,03,04,54,18.00
2016,05,03,04,55,18.00
2016,05,03,04,56,17.90
2016,05,03,04,57,17.90
2016,05,03,04,58,17.90
2016,05,03,04,59,17.90
2016,05,03,05,00,17.90
2016,05,03,05,01,17.80
2016,05,03,05,02,17.80
2016,05,03,05,03,17.70
2016,05,03,05,04,17.60
2016,05,03,05,05,17.50
2016,05,03,05,06,17.50
2016,05,03,05,07,17.40
2016,05,03,05,08,17.30
2016,05,03,05,09,17.30
2016,05,03,05,10,17.20
2016,05,03,05,11,17.10
2016,05,03,05,12,17.10
2016,05,03,05,13,17.00
2016,05,03,05,14,17.00
2016,05,03,05,15,16.90
2016,05,03,05,16,16.90
2016,05,03,05,17,16.90
2016,05,03,05,18,16.80
2016,05,03,05,19,16.80
2016,05,03,05,20,16.80
2016,05,03,05,21,16.80
2016,05,03,05,22,16.80
2016,05,03,05,23,16.80
2016,05,03,05,24,16.70
2016,05,03,05,25,16.70
2016,05,03,05,26,16.70
2016,05,03,05,27,16.60
2016,05,03,05,28,16.60
2016,05,03,05,29,16.60
2016,05,03,05,30,16.50
2016,05,03,05,31,16.50
2016,05,03,05,32,16.40
2016,05,03,05,33,16.40
2016,05,03,05,34,16.30
2016,05,03,05,35,16.30
2016,05,03,05,36,16.30
2016,05,03,05,37,16.30
2016,05,03,05,38,16.30
2016,05,03,05,39,16.30
2016,05,03,05,40,16.30
2016,05,03,05,41,16.20
2016,05,03,05,42,16.20
2016,05,03,05,43,16.20
2016,05,03,05,44,16.20
2016,05,03,05,45,16.20
2016,05,03,05,46,16.20
2016,05,03,05,47,16.10
2016,05,03,05,48,16.10
2016,05,03,05,49,16.10
2016,05,03,05,50,16.10
2016,05,03,05,51,16.10
2016,05,03,05,52,16.10
2016,05,03,05,53,16.10
2016,05,03,05,54,16.10
2016,05,03,05,55,16.10
2016,05,03,05,56,16.10
2016,05,03,05,57,16.10
2016,05,03,05,58,16.20
2016,05,03,05,59,16.20
2016,05,03,06,00,16.20
2016,05,03,06,01,16.20
2016,05,03,06,02,16.30
2016,05,03,06,03,16.30
2016,05,03,06,04,16.40
2016,05,03,06,05,16.50
2016,05,03,06,06,16.50
2016,05,03,06,07,16.50
2016,05,03,06,08,16.60
2016,05,03,06,09,16.60
2016,05,03,06,10,16.70
2016,05,03,06,11,16.70
2016,05,03,06,12,16.70
2016,05,03,06,13,16.70
2016,05,03,06,14,16.70
2016,05,03,06,15,16.60
2016,05,03,06,16,16.60
2016,05,03,06,17,16.60
2016,05,03,06,18,16.60
2016,05,03,06,19,16.50
2016,05,03,06,20,16.50
2016,05,03,06,21,16.40
2016,05,03,06,22,16.40
2016,05,03,06,23,16.40
2016,05,03,06,24,16.40
2016,05,03,06,25,16.40
2016,05,03,06,26,16.30
2016,05,03,06,27,16.30
2016,05,03,06,28,16.30
2016,05,03,06,29,16.30
2016,05,03,06,30,16.30
2016,05,03,06,31,16.40
2016,05,03,06,32,16.40
2016,05,03,06,33,16.40
2016,05,03,06,34,16.50
2016,05,03,06,35,16.50
2016,05,03,06,36,16.60
2016,05,03,06,37,16.60
2016,05,03,06,38,16.60
2016,05,03,06,39,16.60
2016,05,03,06,40,16.60
2016,05,03,06,41,16.60
2016,05,03,06,42,16.60
2016,05,03,06,43,16.50
2016,05,03,06,44,16.50
2016,05,03,06,45,16.40
2016,05,03,06,46,16.40
2016,05,03,06,47,16.40
2016,05,03,06,48,16.30
2016,05,03,06,49,16.30
2016,05,03,06,50,16.20
2016,05,03,06,51,16.10
2016,05,03,06,52,16.10
2016,05,03,06,53,16.00
2016,05,03,06,54,16.00
2016,05,03,06,55,15.90
2016,05,03,06,56,15.90
2016,05,03,06,57,15.90
2016,05,03,06,58,15.90
2016,05,03,06,59,15.90
2016,05,03,07,00,15.80
2016,05,03,07,01,15.80
2016,05,03,07,02,15.80
2016,05,03,07,03,15.80
2016,05,03,07,04,15.70
2016,05,03,07,05,15.70
2016,05,03,07,06,15.70
2016,05,03,07,07,15.60
2016,05,03,07,08,15.60
2016,05,03,07,09,15.60
2016,05,03,07,10,15.60
2016,05,03,07,11,15.60
2016,05,03,07,12,15.60
2016,05,03,07,13,15.60
2016,05,03,07,14,15.60
2016,05,03,07,15,15.60
2016,05,03,07,16,15.50
2016,05,03,07,17,15.50
2016,05,03,07,18,15.50
2016,05,03,07,19,15.60
2016,05,03,07,20,15.60
2016,05,03,07,21,15.60
2016,05,03,07,22,15.60
2016,05,03,07,23,15.60
2016,05,03,07,24,15.60
2016,05,03,07,25,15.60
2016,05,03,07,26,15.50
2016,05,03,07,27,15.50
2016,05,03,07,28,15.50
2016,05,03,07,29,15.40
2016,05,03,07,30,15.40
2016,05,03,07,31,15.40
2016,05,03,07,32,15.30
2016,05,03,07,33,15.30
2016,05,03,07,34,15.30
2016,05,03,07,35,15.30
2016,05,03,07,36,15.20
2016,05,03,07,37,15.20
2016,05,03,07,38,15.30
2016,05,03,07,39,15.30
2016,05,03,07,40,15.30
2016,05,03,07,41,15.40
2016,05,03,07,42,15.40
2016,05,03,07,43,15.50
2016,05,03,07,44,15.50
2016,05,03,07,45,15.50
2016,05,03,07,46,15.60
2016,05,03,07,47,15.60
2016,05,03,07,48,15.60
2016,05,03,07,49,15.70
2016,05,03,07,50,15.70
2016,05,03,07,51,15.70
2016,05,03,07,52,15.80
2016,05,03,07,53,15.80
2016,05,03,07,54,15.80
2016,05,03,07,55,15.80
2016,05,03,07,56,15.80
2016,05,03,07,57,15.80
2016,05,03,07,58,15.80
2016,05,03,07,59,15.80
2016,05,03,08,00,15.80
2016,05,03,08,01,15.90
2016,05,03,08,02,15.90
2016,05,03,08,03,15.90
2016,05,03,08,04,15.90
2016,05,03,08,05,15.90
2016,05,03,08,06,15.90
2016,05,03,08,07,15.90
2016,05,03,08,08,15.90
2016,05,03,08,09,15.90
2016,05,03,08,10,15.90
2016,05,03,08,11,15.90
2016,05,03,08,12,15.90
2016,05,03,08,13,15.90
2016,05,03,08,14,15.90
2016,05,03,08,15,15.80
2016,05,03,08,16,15.70
2016,05,03,08,17,15.60
2016,05,03,08,18,15.50
2016,05,03,08,19,15.40
2016,05,03,08,20,15.30
2016,05,03,08,21,15.20
2016,05,03,08,22,15.10
2016,05,03,08,23,15.00
2016,05,03,08,24,14.90
2016,05,03,08,25,14.80
2016,05,03,08,26,14.70
2016,05,03,08,27,14.60
2016,05,03,08,28,14.50
2016,05,03,08,29,14.50
2016,05,03,08,30,14.40
2016,05,03,08,31,14.40
2016,05,03,08,32,14.30
2016,05,03,08,33,14.20
2016,05,03,08,34,14.10
2016,05,03,08,35,14.10
2016,05,03,08,36,14.00
2016,05,03,08,37,14.00
2016,05,03,08,38,13.90
2016,05,03,08,39,13.90
2016,05,03,08,40,13.90
2016,05,03,08,41,13.80
2016,05,03,08,42,13.80
2016,05,03,08,43,13.80
2016,05,03,08,44,13.80
2016,05,03,08,45,13.80
2016,05,03,08,46,13.70
2016,05,03,08,47,13.70
2016,05,03,08,48,13.70
2016,05,03,08,49,13.70
2016,05,03,08,50,13.70
2016,05,03,08,51,13.70
2016,05,03,08,52,13.70
2016,05,03,08,53,13.70
2016,05,03,08,54,13.70
2016,05,03,08,55,13.70
2016,05,03,08,56,13.70
2016,05,03,08,57,13.70
2016,05,03,08,58,13.70
2016,05,03,08,59,13.70
2016,05,03,09,00,13.70
2016,05,03,09,01,13.70
2016,05,03,09,02,13.80
2016,05,03,09,03,13.80
2016,05,03,09,04,13.80
2016,05,03,09,05,13.80
2016,05,03,09,06,13.70
2016,05,03,09,07,13.70
2016,05,03,09,08,13.70
2016,05,03,09,09,13.70
2016,05,03,09,10,13.70
2016,05,03,09,11,13.70
2016,05,03,09,12,13.70
2016,05,03,09,13,13.70
2016,05,03,09,14,13.70
2016,05,03,09,15,13.80
2016,05,03,09,16,13.80
2016,05,03,09,17,13.80
2016,05,03,09,18,13.80
2016,05,03,09,19,13.80
2016,05,03,09,20,13.80
2016,05,03,09,21,13.80
2016,05,03,09,22,13.80
2016,05,03,09,23,13.80
2016,05,03,09,24,13.80
2016,05,03,09,25,13.80
2016,05,03,09,26,13.80
2016,05,03,09,27,13.80
2016,05,03,09,28,13.80
2016,05,03,09,29,13.90
2016,05,03,09,30,13.90
2016,05,03,09,31,13.90
2016,05,03,09,32,13.90
2016,05,03,09,33,13.90
2016,05,03,09,34,13.90
2016,05,03,09,35,13.90
2016,05,03,09,36,13.90
2016,05,03,09,37,13.90
2016,05,03,09,38,13.90
2016,05,03,09,39,13.90
2016,05,03,09,40,13.90
2016,05,03,09,41,13.90
2016,05,03,09,42,13.90
2016,05,03,09,43,13.90
2016,05,03,09,44,13.90
2016,05,03,09,45,13.90
2016,05,03,09,46,13.90
2016,05,03,09,47,13.90
2016,05,03,09,48,13.90
2016,05,03,09,49,13.90
2016,05,03,09,50,14.00
2016,05,03,09,51,14.00
2016,05,03,09,52,14.00
2016,05,03,09,53,14.10
2016,05,03,09,54,14.10
2016,05,03,09,55,14.10
2016,05,03,09,56,14.20
2016,05,03,09,57,14.20
2016,05,03,09,58,14.20
2016,05,03,09,59,14.30
2016,05,03,10,00,14.30
2016,05,03,10,01,14.40
2016,05,03,10,02,14.40
2016,05,03,10,03,14.50
2016,05,03,10,04,14.50
2016,05,03,10,05,14.60
2016,05,03,10,06,14.60
2016,05,03,10,07,14.70
2016,05,03,10,08,14.80
2016,05,03,10,09,14.80
2016,05,03,10,10,14.90
2016,05,03,10,11,15.00
2016,05,03,10,12,15.10
2016,05,03,10,13,15.20
2016,05,03,10,14,15.30
2016,05,03,10,15,15.30
2016,05,03,10,16,15.50
2016,05,03,10,17,15.60
2016,05,03,10,18,15.60
2016,05,03,10,19,15.70
2016,05,03,10,20,15.80
2016,05,03,10,21,15.80
2016,05,03,10,22,15.80
2016,05,03,10,23,15.90
2016,05,03,10,24,16.00
2016,05,03,10,25,16.00
2016,05,03,10,26,16.10
2016,05,03,10,27,16.20
2016,05,03,10,28,16.20
2016,05,03,10,29,16.20
2016,05,03,10,30,16.30
2016,05,03,10,31,16.30
2016,05,03,10,32,16.40
2016,05,03,10,33,16.50
2016,05,03,10,34,16.60
2016,05,03,10,35,16.60
2016,05,03,10,36,16.60
2016,05,03,10,37,16.60
2016,05,03,10,38,16.60
2016,05,03,10,39,16.60
2016,05,03,10,40,16.70
2016,05,03,10,41,16.70
2016,05,03,10,42,16.80
2016,05,03,10,43,16.80
2016,05,03,10,44,16.80
2016,05,03,10,45,16.80
2016,05,03,10,46,16.80
2016,05,03,10,47,16.80
2016,05,03,10,48,16.80
2016,05,03,10,49,16.80
2016,05,03,10,50,16.80
2016,05,03,10,51,16.80
2016,05,03,10,52,16.80
2016,05,03,10,53,16.80
2016,05,03,10,54,16.80
2016,05,03,10,55,16.80
2016,05,03,10,56,16.80
2016,05,03,10,57,16.80
2016,05,03,10,58,16.80
2016,05,03,10,59,16.80
2016,05,03,11,00,16.80
2016,05,03,11,01,16.80
2016,05,03,11,02,16.80
2016,05,03,11,03,16.80
2016,05,03,11,04,16.80
2016,05,03,11,05,16.80
2016,05,03,11,06,16.80
2016,05,03,11,07,16.80
2016,05,03,11,08,16.80
2016,05,03,11,09,16.80
2016,05,03,11,10,16.80
2016,05,03,11,11,16.80
2016,05,03,11,12,16.80
2016,05,03,11,13,16.80
2016,05,03,11,14,16.90
2016,05,03,11,15,17.00
2016,05,03,11,16,17.10
2016,05,03,11,17,17.20
2016,05,03,11,18,17.20
2016,05,03,11,19,17.30
2016,05,03,11,20,17.30
2016,05,03,11,21,17.30
2016,05,03,11,22,17.30
2016,05,03,11,23,17.40
2016,05,03,11,24,17.40
2016,05,03,11,25,17.50
2016,05,03,11,26,17.50
2016,05,03,11,27,17.60
2016,05,03,11,28,17.60
2016,05,03,11,29,17.60
2016,05,03,11,30,17.60
2016,05,03,11,31,17.70
2016,05,03,11,32,17.70
2016,05,03,11,33,17.70
2016,05,03,11,34,17.80
2016,05,03,11,35,17.80
2016,05,03,11,36,17.90
2016,05,03,11,37,18.10
2016,05,03,11,38,18.20
2016,05,03,11,39,18.20
2016,05,03,11,40,18.30
2016,05,03,11,41,18.40
2016,05,03,11,42,18.50
2016,05,03,11,43,18.50
2016,05,03,11,44,18.60
2016,05,03,11,45,18.50
2016,05,03,11,46,18.50
2016,05,03,11,47,18.50
2016,05,03,11,48,18.50
2016,05,03,11,49,18.50
2016,05,03,11,50,18.50
2016,05,03,11,51,18.50
2016,05,03,11,52,18.50
2016,05,03,11,53,18.50
2016,05,03,11,54,18.50
2016,05,03,11,55,18.40
2016,05,03,11,56,18.40
2016,05,03,11,57,18.30
2016,05,03,11,58,18.30
2016,05,03,11,59,18.30
2016,05,03,12,00,18.20
2016,05,03,12,01,18.20
2016,05,03,12,02,18.10
2016,05,03,12,03,18.10
2016,05,03,12,04,18.10
2016,05,03,12,05,18.10
2016,05,03,12,06,18.20
2016,05,03,12,07,18.20
2016,05,03,12,08,18.20
2016,05,03,12,09,18.20
2016,05,03,12,10,18.20
2016,05,03,12,11,18.20
2016,05,03,12,12,18.20
2016,05,03,12,13,18.20
2016,05,03,12,14,18.20
2016,05,03,12,15,18.10
2016,05,03,12,16,18.10
2016,05,03,12,17,18.10
2016,05,03,12,18,18.10
2016,05,03,12,19,18.10
2016,05,03,12,20,18.10
2016,05,03,12,21,18.10
2016,05,03,12,22,18.10
2016,05,03,12,23,18.10
2016,05,03,12,24,18.10
2016,05,03,12,25,18.10
2016,05,03,12,26,18.10
2016,05,03,12,27,18.10
2016,05,03,12,28,18.10
2016,05,03,12,29,18.20
2016,05,03,12,30,18.20
2016,05,03,12,31,18.20
2016,05,03,12,32,18.20
2016,05,03,12,33,18.20
2016,05,03,12,34,18.30
2016,05,03,12,35,18.30
2016,05,03,12,36,18.30
2016,05,03,12,37,18.30
2016,05,03,12,38,18.20
2016,05,03,12,39,18.20
2016,05,03,12,40,18.20
2016,05,03,12,41,18.20
2016,05,03,12,42,18.20
2016,05,03,12,43,18.30
2016,05,03,12,44,18.30
2016,05,03,12,45,18.30
2016,05,03,12,46,18.30
2016,05,03,12,47,18.20
2016,05,03,12,48,18.20
2016,05,03,12,49,18.20
2016,05,03,12,50,18.20
2016,05,03,12,51,18.20
2016,05,03,12,52,18.20
2016,05,03,12,53,18.20
2016,05,03,12,54,18.20
2016,05,03,12,55,18.20
2016,05,03,12,56,18.20
2016,05,03,12,57,18.20
2016,05,03,12,58,18.20
2016,05,03,12,59,18.20
2016,05,03,13,00,18.20
2016,05,03,13,01,18.20
2016,05,03,13,02,18.20
2016,05,03,13,03,18.20
2016,05,03,13,04,18.20
2016,05,03,13,05,18.20
2016,05,03,13,06,18.10
2016,05,03,13,07,18.10
2016,05,03,13,08,18.10
2016,05,03,13,09,18.10
2016,05,03,13,10,18.00
2016,05,03,13,11,18.00
2016,05,03,13,12,18.00
2016,05,03,13,13,18.00
2016,05,03,13,14,18.00
2016,05,03,13,15,18.00
2016,05,03,13,16,18.00
2016,05,03,13,17,18.00
2016,05,03,13,18,17.90
2016,05,03,13,19,17.90
2016,05,03,13,20,17.90
2016,05,03,13,21,17.90
2016,05,03,13,22,17.90
2016,05,03,13,23,17.80
2016,05,03,13,24,17.80
2016,05,03,13,25,17.80
2016,05,03,13,26,17.80
2016,05,03,13,27,17.80
2016,05,03,13,28,17.80
2016,05,03,13,29,17.80
2016,05,03,13,30,17.80
2016,05,03,13,31,17.80
2016,05,03,13,32,17.80
2016,05,03,13,33,17.70
2016,05,03,13,34,17.60
2016,05,03,13,35,17.40
2016,05,03,13,36,17.30
2016,05,03,13,37,17.20
2016,05,03,13,38,17.10
2016,05,03,13,39,17.10
2016,05,03,13,40,17.00
2016,05,03,13,41,16.90
2016,05,03,13,42,16.90
2016,05,03,13,43,16.90
2016,05,03,13,44,16.80
2016,05,03,13,45,16.80
2016,05,03,13,46,16.70
2016,05,03,13,47,16.70
2016,05,03,13,48,16.60
2016,05,03,13,49,16.50
2016,05,03,13,50,16.40
2016,05,03,13,51,16.30
2016,05,03,13,52,16.30
2016,05,03,13,53,16.20
2016,05,03,13,54,16.20
2016,05,03,13,55,16.20
2016,05,03,13,56,16.20
2016,05,03,13,57,16.20
2016,05,03,13,58,16.20
2016,05,03,13,59,16.20
2016,05,03,14,00,16.20
2016,05,03,14,01,16.10
2016,05,03,14,02,16.10
2016,05,03,14,03,16.10
2016,05,03,14,04,16.10
2016,05,03,14,05,16.10
2016,05,03,14,06,16.10
2016,05,03,14,07,16.10
2016,05,03,14,08,16.00
2016,05,03,14,09,16.00
2016,05,03,14,10,15.90
2016,05,03,14,11,15.90
2016,05,03,14,12,15.80
2016,05,03,14,13,15.80
2016,05,03,14,14,15.80
2016,05,03,14,15,15.80
2016,05,03,14,16,15.80
2016,05,03,14,17,15.80
2016,05,03,14,18,15.80
2016,05,03,14,19,15.70
2016,05,03,14,20,15.70
2016,05,03,14,21,15.80
2016,05,03,14,22,15.80
2016,05,03,14,23,15.70
2016,05,03,14,24,15.70
2016,05,03,14,25,15.70
2016,05,03,14,26,15.70
2016,05,03,14,27,15.70
2016,05,03,14,28,15.70
2016,05,03,14,29,15.70
2016,05,03,14,30,15.70
2016,05,03,14,31,15.60
2016,05,03,14,32,15.60
2016,05,03,14,33,15.60
2016,05,03,14,34,15.60
2016,05,03,14,35,15.60
2016,05,03,14,36,15.60
2016,05,03,14,37,15.50
2016,05,03,14,38,15.50
2016,05,03,14,39,15.50
2016,05,03,14,40,15.50
2016,05,03,14,41,15.50
2016,05,03,14,42,15.50
2016,05,03,14,43,15.40
2016,05,03,14,44,15.40
2016,05,03,14,45,15.40
2016,05,03,14,46,15.40
2016,05,03,14,47,15.40
2016,05,03,14,48,15.40
2016,05,03,14,49,15.40
2016,05,03,14,50,15.40
2016,05,03,14,51,15.40
2016,05,03,14,52,15.30
2016,05,03,14,53,15.30
2016,05,03,14,54,15.30
2016,05,03,14,55,15.30
2016,05,03,14,56,15.30
2016,05,03,14,57,15.20
2016,05,03,14,58,15.20
2016,05,03,14,59,15.20
2016,05,03,15,00,15.20
2016,05,03,15,01,15.20
2016,05,03,15,02,15.20
2016,05,03,15,03,15.20
2016,05,03,15,04,15.20
2016,05,03,15,05,15.20
2016,05,03,15,06,15.20
2016,05,03,15,07,15.20
2016,05,03,15,08,15.20
2016,05,03,15,09,15.20
2016,05,03,15,10,15.20
2016,05,03,15,11,15.20
2016,05,03,15,12,15.20
2016,05,03,15,13,15.20
2016,05,03,15,14,15.20
2016,05,03,15,15,15.20
2016,05,03,15,16,15.10
2016,05,03,15,17,15.10
2016,05,03,15,18,15.10
2016,05,03,15,19,15.10
2016,05,03,15,20,15.10
2016,05,03,15,21,15.10
2016,05,03,15,22,15.10
2016,05,03,15,23,15.10
2016,05,03,15,24,15.10
2016,05,03,15,25,15.10
2016,05,03,15,26,15.10
2016,05,03,15,27,15.10
2016,05,03,15,28,15.10
2016,05,03,15,29,15.10
2016,05,03,15,30,15.10
2016,05,03,15,31,15.10
2016,05,03,15,32,15.10
2016,05,03,15,33,15.10
2016,05,03,15,34,15.10
2016,05,03,15,35,15.10
2016,05,03,15,36,15.10
2016,05,03,15,37,15.00
2016,05,03,15,38,15.00
2016,05,03,15,39,15.00
2016,05,03,15,40,15.00
2016,05,03,15,41,15.00
2016,05,03,15,42,15.00
2016,05,03,15,43,15.00
2016,05,03,15,44,15.00
2016,05,03,15,45,15.00
2016,05,03,15,46,15.00
2016,05,03,15,47,14.90
2016,05,03,15,48,14.90
2016,05,03,15,49,14.90
2016,05,03,15,50,14.90
2016,05,03,15,51,14.90
2016,05,03,15,52,14.90
2016,05,03,15,53,14.90
2016,05,03,15,54,14.90
2016,05,03,15,55,14.90
2016,05,03,15,56,14.90
2016,05,03,15,57,14.90
2016,05,03,15,58,14.90
2016,05,03,15,59,14.90
2016,05,03,16,00,14.90
2016,05,03,16,01,14.90
2016,05,03,16,02,14.90
2016,05,03,16,03,14.90
2016,05,03,16,04,14.90
2016,05,03,16,05,14.90
2016,05,03,16,06,14.90
2016,05,03,16,07,14.90
2016,05,03,16,08,14.90
2016,05,03,16,09,14.90
2016,05,03,16,10,15.00
2016,05,03,16,11,15.00
2016,05,03,16,12,15.00
2016,05,03,16,13,15.00
2016,05,03,16,14,15.00
2016,05,03,16,15,15.00
2016,05,03,16,16,15.00
2016,05,03,16,17,15.10
2016,05,03,16,18,15.10
2016,05,03,16,19,15.10
2016,05,03,16,20,15.00
2016,05,03,16,21,15.10
2016,05,03,16,22,15.00
2016,05,03,16,23,15.00
2016,05,03,16,24,15.00
2016,05,03,16,25,15.00
2016,05,03,16,26,15.00
2016,05,03,16,27,15.00
2016,05,03,16,28,15.00
2016,05,03,16,29,15.00
2016,05,03,16,30,15.00
2016,05,03,16,31,14.90
2016,05,03,16,32,14.90
2016,05,03,16,33,14.90
2016,05,03,16,34,14.90
2016,05,03,16,35,14.90
2016,05,03,16,36,14.90
2016,05,03,16,37,14.90
2016,05,03,16,38,14.90
2016,05,03,16,39,14.90
2016,05,03,16,40,14.90
2016,05,03,16,41,14.90
2016,05,03,16,42,14.90
2016,05,03,16,43,14.90
2016,05,03,16,44,14.90
2016,05,03,16,45,14.90
2016,05,03,16,46,14.90
2016,05,03,16,47,14.90
2016,05,03,16,48,14.90
2016,05,03,16,49,14.90
2016,05,03,16,50,14.90
2016,05,03,16,51,14.90
2016,05,03,16,52,14.90
2016,05,03,16,53,15.00
2016,05,03,16,54,15.00
2016,05,03,16,55,15.00
2016,05,03,16,56,15.00
2016,05,03,16,57,15.00
2016,05,03,16,58,15.00
2016,05,03,16,59,15.00
2016,05,03,17,00,15.00
2016,05,03,17,01,15.10
2016,05,03,17,02,15.10
2016,05,03,17,03,15.10
2016,05,03,17,04,15.10
2016,05,03,17,05,15.10
2016,05,03,17,06,15.10
2016,05,03,17,07,15.10
2016,05,03,17,08,15.20
2016,05,03,17,09,15.20
2016,05,03,17,10,15.20
2016,05,03,17,11,15.20
2016,05,03,17,12,15.20
2016,05,03,17,13,15.30
2016,05,03,17,14,15.30
2016,05,03,17,15,15.30
2016,05,03,17,16,15.30
2016,05,03,17,17,15.30
2016,05,03,17,18,15.40
2016,05,03,17,19,15.40